Le nostre stazioni meteo in Italia

Pubblicità
Il mio iltempo24.it
Roma/Ciampino, Italia (16239): Temperatura & dewpoint: 17.07.2019 06:00:00 - 23.07.2019 06:00:00 (CEST)Roma/Ciampino, Italia (16239): velocità del vento: 17.07.2019 06:00:00 - 23.07.2019 06:00:00 (CEST)Roma/Ciampino, Italia (16239): direzione del vento: 17.07.2019 06:00:00 - 23.07.2019 06:00:00 (CEST)Roma/Ciampino, Italia (16239): reduced air pressure: 17.07.2019 06:00:00 - 23.07.2019 06:00:00 (CEST)Roma/Ciampino, Italia (16239): visibility: 17.07.2019 06:00:00 - 23.07.2019 06:00:00 (CEST)Roma/Ciampino, Italia (16239): precipitazioni: 17.07.2019 06:00:00 - 23.07.2019 06:00:00 (CEST)
Data & Tempo tt [°C] td [°C] ff [km/h] ff [kn] dd ppp [hPa] vv [km] rr [mm]
23.07.2019 06:00:00 22,0 15,0 4 2 - - 10 -
23.07.2019 05:00:00 22,2 14,8 0 0 N 1017,8 - 0,0
23.07.2019 04:00:00 22,0 14,0 4 2 - - 10 -
23.07.2019 03:00:00 24,0 14,0 2 1 - - 10 -
23.07.2019 02:00:00 23,4 14,8 5 3 E 1018,5 10 -
23.07.2019 01:00:00 24,0 17,0 5 3 SSE - 10 -
23.07.2019 00:00:00 24,0 15,0 5 3 SE - 10 -
22.07.2019 23:00:00 24,7 16,2 5 3 S 1019,2 10 0,0
22.07.2019 22:00:00 27,0 18,0 4 2 - - 10 -
22.07.2019 21:00:00 28,0 15,0 8 4 S - 10 -
22.07.2019 20:00:00 29,3 14,3 9 5 SSO 1018,8 10 -
22.07.2019 19:00:00 31,0 14,0 13 7 OSO - 10 -
22.07.2019 18:00:00 32,0 14,0 15 8 O - 10 -
22.07.2019 17:00:00 32,9 14,4 15 8 O 1019,2 10 0,0
22.07.2019 16:00:00 33,0 16,0 16 9 O - 10 -
22.07.2019 15:00:00 34,0 16,0 13 7 OSO - 10 -
22.07.2019 14:00:00 34,0 13,4 5 3 - 1020,0 10 -
22.07.2019 13:00:00 32,0 13,0 8 4 ONO - 10 -
22.07.2019 12:00:00 31,0 13,0 8 4 - - 10 -
22.07.2019 11:00:00 29,5 12,5 8 4 NNO 1021,2 10 0,0
22.07.2019 10:00:00 27,0 13,0 11 6 N - 10 -
22.07.2019 09:00:00 24,0 13,0 9 5 NNE - 10 -
22.07.2019 08:00:00 22,4 12,5 8 4 NNE 1021,1 10 -
22.07.2019 07:00:00 20,0 12,0 5 3 NE - 10 -
22.07.2019 06:00:00 19,0 11,0 5 3 NNO - 10 -
22.07.2019 05:00:00 20,5 9,1 2 1 - 1020,7 10 0,0
22.07.2019 04:00:00 20,0 11,0 5 3 ENE - 10 -
22.07.2019 03:00:00 19,0 11,0 4 2 E - 10 -
22.07.2019 02:00:00 19,9 10,4 5 3 ESE 1021,4 10 -
22.07.2019 01:00:00 21,0 8,0 8 4 SE - 10 -
22.07.2019 00:00:00 21,0 10,0 4 2 ESE - 10 -
21.07.2019 23:00:00 22,1 13,4 2 1 - 1021,7 10 0,0
21.07.2019 22:00:00 25,0 17,0 4 2 SSO - 10 -
21.07.2019 21:00:00 26,0 16,0 5 3 SO - 10 -
21.07.2019 20:00:00 28,3 14,2 9 5 OSO 1020,5 10 -
21.07.2019 19:00:00 29,0 14,0 15 8 O - 10 -
21.07.2019 18:00:00 31,0 12,0 15 8 O - 10 -
21.07.2019 17:00:00 31,4 13,5 18 10 OSO 1020,2 10 0,0
21.07.2019 16:00:00 31,0 13,0 18 10 O - 10 -
21.07.2019 15:00:00 32,0 13,0 15 8 O - 10 -
21.07.2019 14:00:00 32,5 13,7 13 7 O 1020,6 10 -
21.07.2019 13:00:00 32,0 10,0 8 4 OSO - 10 -
21.07.2019 12:00:00 30,0 8,0 8 4 - - 10 -
21.07.2019 11:00:00 28,6 11,9 8 4 ONO 1020,9 10 0,0
21.07.2019 10:00:00 27,0 15,0 11 6 NNO - 10 -
21.07.2019 09:00:00 24,0 16,0 9 5 NNE - 10 -
21.07.2019 08:00:00 22,1 16,0 9 5 N 1021,0 10 -
21.07.2019 07:00:00 20,0 16,0 5 3 NNE - 10 -
21.07.2019 06:00:00 20,0 15,0 5 3 E - 10 -
21.07.2019 05:00:00 19,0 15,0 5 3 E - 10 -
21.07.2019 04:00:00 20,0 15,0 5 3 ESE - 10 -
21.07.2019 03:00:00 - - - - - - - -
21.07.2019 02:00:00 20,3 15,4 4 2 E 1020,6 10 -
21.07.2019 01:00:00 21,0 15,0 4 2 E - 10 -
21.07.2019 00:00:00 22,0 16,0 4 2 - - 10 -
20.07.2019 23:00:00 22,5 17,9 2 1 - 1020,4 10 0,0
20.07.2019 22:00:00 24,0 18,0 4 2 - - 10 -
20.07.2019 21:00:00 26,0 18,0 5 3 OSO - 10 -
20.07.2019 20:00:00 26,7 16,7 9 5 SSO 1019,2 10 -
20.07.2019 19:00:00 28,0 17,0 11 6 SO - 10 -
20.07.2019 18:00:00 29,0 15,0 13 7 SO - 10 -
20.07.2019 17:00:00 29,4 14,2 13 7 SO 1019,2 10 0,0
20.07.2019 16:00:00 30,0 14,0 13 7 SO - 10 -
20.07.2019 15:00:00 30,0 14,0 13 7 SSO - 10 -
20.07.2019 14:00:00 30,2 16,1 11 6 SO 1019,2 10 -
20.07.2019 13:00:00 30,0 17,0 11 6 SO - 10 -
20.07.2019 12:00:00 30,0 15,0 4 2 - - 10 -
20.07.2019 11:00:00 28,5 14,5 2 1 - 1019,1 10 0,0
20.07.2019 10:00:00 26,0 15,0 5 3 - - 10 -
20.07.2019 09:00:00 25,0 15,0 5 3 NNO - 10 -
20.07.2019 08:00:00 23,3 14,8 5 3 ENE 1018,6 10 -
20.07.2019 07:00:00 21,0 14,0 4 2 - - 10 -
20.07.2019 06:00:00 19,0 15,0 5 3 NNE - 10 -
20.07.2019 05:00:00 19,0 14,8 2 1 NNE 1017,8 10 0,0
20.07.2019 04:00:00 - - - - - - - -
20.07.2019 03:00:00 - - - - - - - -
20.07.2019 02:00:00 20,9 14,8 8 4 E 1017,6 10 -
20.07.2019 01:00:00 21,0 15,0 8 4 ESE - 10 -
20.07.2019 00:00:00 21,0 16,0 5 3 SE - 10 -
19.07.2019 23:00:00 22,4 17,1 4 2 - 1017,8 10 0,0
19.07.2019 22:00:00 24,0 17,0 5 3 SSO - 10 -
19.07.2019 21:00:00 25,0 17,0 5 3 SO - 10 -
19.07.2019 20:00:00 26,9 17,3 9 5 OSO 1016,9 10 -
19.07.2019 19:00:00 28,0 17,0 8 4 SSO - 10 -
19.07.2019 18:00:00 27,0 17,0 13 7 ESE - 10 -
19.07.2019 17:00:00 27,2 15,7 11 6 SSO 1016,7 10 0,0
19.07.2019 16:00:00 29,0 17,0 15 8 SSO - 10 -
19.07.2019 15:00:00 29,0 18,0 13 7 SSO - 10 -
19.07.2019 14:00:00 29,0 17,7 16 9 OSO 1016,3 10 -
19.07.2019 13:00:00 29,0 16,0 9 5 - - 10 -
19.07.2019 12:00:00 28,0 15,0 8 4 - - 10 -
19.07.2019 11:00:00 27,7 15,3 5 3 OSO 1016,4 10 0,0
19.07.2019 10:00:00 26,0 16,0 4 2 - - 10 -
19.07.2019 09:00:00 25,0 16,0 4 2 - - 10 -
19.07.2019 08:00:00 23,3 16,0 4 2 E 1015,7 10 -
19.07.2019 07:00:00 20,0 15,0 5 3 ESE - 10 -
19.07.2019 06:00:00 19,0 14,0 9 5 E - 10 -
19.07.2019 05:00:00 19,8 14,2 9 5 E 1014,9 10 0,0
19.07.2019 04:00:00 20,0 15,0 9 5 E - 10 -
19.07.2019 03:00:00 20,0 15,0 8 4 ESE - 10 -
19.07.2019 02:00:00 20,0 16,6 8 4 ESE 1015,3 10 -
19.07.2019 01:00:00 21,0 18,0 8 4 SSE - 10 -
19.07.2019 00:00:00 22,0 19,0 4 2 - - 10 -
18.07.2019 23:00:00 22,3 19,0 5 3 SSO 1014,5 10 0,0
18.07.2019 22:00:00 23,0 19,0 4 2 - - 10 -
18.07.2019 21:00:00 24,0 18,0 8 4 SO - 10 -
18.07.2019 20:00:00 25,7 17,7 9 5 SSO 1013,1 10 -
18.07.2019 19:00:00 27,0 17,0 11 6 SO - 10 -
18.07.2019 18:00:00 28,0 15,0 13 7 SSO - 10 -
18.07.2019 17:00:00 28,1 15,4 13 7 SO 1012,4 10 0,0
18.07.2019 16:00:00 29,0 15,0 13 7 SO - 10 -
18.07.2019 15:00:00 30,0 15,0 11 6 SSO - 10 -
18.07.2019 14:00:00 29,8 13,5 11 6 OSO 1012,3 10 -
18.07.2019 13:00:00 - - - - - - - -
18.07.2019 12:00:00 29,0 14,0 8 4 - - 10 -
18.07.2019 11:00:00 27,9 12,3 8 4 - 1012,6 10 0,0
18.07.2019 10:00:00 27,0 11,0 4 2 - - 10 -
18.07.2019 09:00:00 25,0 12,0 4 2 - - 10 -
18.07.2019 08:00:00 21,7 12,1 5 3 NNE 1012,1 10 -
18.07.2019 07:00:00 19,0 12,0 5 3 ESE - 10 -
18.07.2019 06:00:00 19,0 11,0 5 3 ESE - 10 -
18.07.2019 05:00:00 18,9 11,3 5 3 E 1011,7 10 0,0
18.07.2019 04:00:00 21,0 10,0 2 1 - - 10 -
18.07.2019 03:00:00 20,0 10,0 9 5 E - 10 -
18.07.2019 02:00:00 21,1 10,7 5 3 E 1012,4 10 -
18.07.2019 01:00:00 21,0 11,0 5 3 E - 10 -
18.07.2019 00:00:00 22,0 11,0 11 6 E - 10 -
17.07.2019 23:00:00 21,3 11,6 8 4 E 1012,4 10 0,0
17.07.2019 22:00:00 23,0 11,0 5 3 SE - 10 -
17.07.2019 21:00:00 25,0 10,0 5 3 SSO - 10 -
17.07.2019 20:00:00 26,2 9,1 9 5 SSO 1012,2 10 -
17.07.2019 19:00:00 27,0 11,0 13 7 SO - 10 -
17.07.2019 18:00:00 27,0 15,0 16 9 SSO - 10 -
17.07.2019 17:00:00 27,8 13,7 13 7 SSO 1012,2 10 0,0
17.07.2019 16:00:00 29,0 12,0 16 9 SSO - 10 -
17.07.2019 15:00:00 30,0 8,0 16 9 SSO - 10 -
17.07.2019 14:00:00 28,8 8,9 11 6 - 1012,7 10 -
17.07.2019 13:00:00 29,0 11,0 8 4 SO - 10 -
17.07.2019 12:00:00 28,0 11,0 8 4 - - 10 -
17.07.2019 11:00:00 27,6 9,6 5 3 - 1013,2 10 0,0
17.07.2019 10:00:00 26,0 11,0 8 4 N - 10 -
17.07.2019 09:00:00 23,0 12,0 9 5 NNE - 10 -
17.07.2019 08:00:00 20,6 11,1 8 4 N 1013,2 10 -
17.07.2019 07:00:00 19,0 11,0 8 4 NNE - 10 -
17.07.2019 06:00:00 18,0 11,0 5 3 NNE - 10 -

tt = Temperatura
td = dewpoint
ff = velocità del vento
dd = direzione del vento
ppp = reduced air pressure
vv = visibility
rr = precipitazioni

Stazioni seguenti

WeatherPro
AMSI
MeteoEarth